Tracking 17154 objects as of 2-August-2015
HD Live streaming from Space Station

GLOBALSTAR M082

Track GLOBALSTAR M082 now!
10-day predictions
GLOBALSTAR M082 is classified as:


NORAD ID: 38042
Int'l Code: 2011-080C
Perigee: 1,420.5 km
Apogee: 1,420.9 km
Inclination: 52.0 °
Period: 114.1 minutes
Semi major axis: 7791 km
RCS: 4.8173 m2 (large)
Launch date: December 28, 2011
Source: Globalstar (GLOB)
Your satellite tracking list
Your tracking list is empty





NASA's NSSDC Master Catalog

Two Line Element Set (TLE):
1 38042U 11080C   15213.90849991 -.00000116  00000-0 -68380-4 0  9997
2 38042 052.0055 185.9001 0000262 316.7651 067.6442 12.62267134168119

Source of the keplerian elements: AFSPC

N2YO: 229